GW2049 Weather Reports


Display with metric or nautical units.
time (UTC)temp
F
wind
direction
speed
MPH
gust
MPH
rain 1hr
in
rain 24hr
in
rain mn
in
humidity
%
barometer
mb
20260504184952 74 248 1.0 1.0 0.00 0.00 0.00 38 1006.6
20260504184447 74 323 3.0 5.0 0.00 0.00 0.00 35 1006.6
20260504183943 74 218 2.0 3.0 0.00 0.00 0.00 35 1006.6
20260504183440 73 303 3.0 3.0 0.00 0.00 0.00 37 1006.1
20260504182938 73 230 5.0 6.0 0.00 0.00 0.00 35 1006.6
20260504182435 73 254 3.0 3.0 0.00 0.00 0.00 38 1006.6
20260504181933 73 312 4.0 6.0 0.00 0.00 0.00 37 1006.6
20260504181429 72 240 3.0 5.0 0.00 0.00 0.00 39 1006.9
20260504180928 72 237 3.0 6.0 0.00 0.00 0.00 38 1006.6
20260504180426 72 190 4.0 6.0 0.00 0.00 0.00 40 1006.9
20260504175924 71 239 6.0 7.0 0.00 0.00 0.00 39 1006.9
20260504175421 70 217 3.0 6.0 0.00 0.00 0.00 42 1006.6
20260504174919 71 210 2.0 3.0 0.00 0.00 0.00 43 1006.9
20260504174416 70 251 3.0 3.0 0.00 0.00 0.00 43 1006.9
20260504173913 69 122 6.0 7.0 0.00 0.00 0.00 45 1006.9
20260504173409 69 206 2.0 3.0 0.00 0.00 0.00 42 1007.3
20260504172907 69 310 2.0 3.0 0.00 0.00 0.00 44 1006.9
20260504172403 69 240 1.0 1.0 0.00 0.00 0.00 43 1007.3
20260504171859 69 260 2.0 2.0 0.00 0.00 0.00 46 1006.9
20260504171357 68 205 1.0 1.0 0.00 0.00 0.00 46 1006.9
20260504170854 69 248 3.0 5.0 0.00 0.00 0.00 45 1006.9
20260504170350 68 247 3.0 3.0 0.00 0.00 0.00 46 1007.3
20260504160309 68 228 3.0 3.0 0.00 0.00 0.00 47 1007.6
20260504150734 63 240 5.0 6.0 0.00 0.00 0.00 49 1008.3
20260504150231 63 218 4.0 6.0 0.00 0.00 0.00 50 1008.3
20260504141200 60 215 5.0 8.0 0.00 0.00 0.00 52 1009.0
20260504140657 60 252 10.0 15.0 0.00 0.00 0.00 52 1009.0
20260504140152 60 235 3.0 5.0 0.00 0.00 0.00 52 1009.4
20260504130621 55 100 3.0 3.0 0.00 0.00 0.00 57 1009.4
20260504130117 53 243 3.0 3.0 0.00 0.00 0.00 58 1009.7
20260504110509 48 246 2.0 3.0 0.00 0.00 0.00 63 1009.4
20260504100431 47 203 2.0 2.0 0.00 0.00 0.00 65 1009.4
20260504081824 47 233 1.0 1.0 0.00 0.00 0.00 65 1010.1
20260504081320 46 221 1.0 2.0 0.00 0.00 0.00 67 1010.1
20260504080816 46 218 1.0 1.0 0.00 0.00 0.00 66 1010.1
20260504080314 47 235 0.0 0.0 0.00 0.00 0.00 67 1010.1
20260504070241 44 232 1.0 1.0 0.00 0.00 0.00 70 1010.1
20260504060201 43 242 2.0 2.0 0.00 0.00 0.00 75 1010.4
20260504050629 39 253 0.0 0.0 0.00 0.00 0.00 86 1010.7
20260504050126 39 245 0.0 0.0 0.00 0.00 0.00 85 1011.1
20260504045623 39 243 0.0 0.0 0.00 0.00 0.00 85 1011.1
20260504045118 40 245 0.0 0.0 0.00 0.00 0.00 84 1010.7
20260504044616 40 249 0.0 1.0 0.00 0.00 0.00 84 1010.7
20260504044113 40 240 0.0 0.0 0.00 0.00 0.00 83 1010.7
20260504043610 40 246 0.0 0.0 0.00 0.00 0.00 83 1011.1
20260504043107 40 247 0.0 1.0 0.00 0.00 0.00 83 1010.7
20260504042604 41 243 0.0 0.0 0.00 0.00 0.00 82 1010.7
20260504042101 41 250 0.0 1.0 0.00 0.00 0.00 82 1010.7
20260504041556 41 278 1.0 1.0 0.00 0.00 0.00 82 1010.7
20260504041053 41 235 0.0 0.0 0.00 0.00 0.00 81 1011.1
20260504040551 41 243 0.0 0.0 0.00 0.00 0.00 80 1010.7
20260504040047 41 234 0.0 0.0 0.00 0.00 0.00 81 1011.1
20260504035544 41 245 0.0 0.0 0.00 0.00 0.00 80 1011.1
20260504035040 42 240 0.0 0.0 0.00 0.00 0.00 79 1011.1
20260504034538 42 243 0.0 0.0 0.00 0.00 0.00 79 1011.1
20260504034035 42 240 0.0 0.0 0.00 0.00 0.00 79 1011.1
20260504033533 42 228 1.0 1.0 0.00 0.00 0.00 79 1011.1
20260504033030 43 237 0.0 0.0 0.00 0.00 0.00 79 1010.7
20260504032527 43 252 0.0 0.0 0.00 0.00 0.00 78 1010.7
20260504032024 43 244 0.0 0.0 0.00 0.00 0.00 77 1011.1
20260504031521 44 241 0.0 0.0 0.00 0.00 0.00 76 1011.1
20260504031017 44 239 0.0 0.0 0.00 0.00 0.00 75 1011.1
20260504030515 44 287 0.0 1.0 0.00 0.00 0.00 74 1011.1
20260504030010 45 240 0.0 0.0 0.00 0.00 0.00 72 1010.7
20260504025507 45 242 0.0 0.0 0.00 0.00 0.00 71 1011.1
20260504025004 46 239 0.0 0.0 0.00 0.00 0.00 70 1011.1
20260504024502 46 241 0.0 0.0 0.00 0.00 0.00 68 1011.1
20260504023959 47 239 0.0 0.0 0.00 0.00 0.00 67 1010.7
20260504023455 48 245 0.0 0.0 0.00 0.00 0.00 65 1011.1
20260504022950 48 252 0.0 0.0 0.00 0.00 0.00 62 1010.7
20260504022447 49 236 0.0 0.0 0.00 0.00 0.00 62 1010.7
20260504021943 49 237 0.0 0.0 0.00 0.00 0.00 59 1010.7
20260504021441 50 240 0.0 0.0 0.00 0.00 0.00 56 1010.7
20260504020938 50 231 1.0 1.0 0.00 0.00 0.00 58 1010.7
20260504020434 51 238 0.0 0.0 0.00 0.00 0.00 56 1010.7
20260504015931 51 230 0.0 0.0 0.00 0.00 0.00 55 1011.1
20260504015427 51 235 0.0 0.0 0.00 0.00 0.00 54 1011.1
20260504014923 52 246 0.0 0.0 0.00 0.00 0.00 50 1010.7
20260504014419 53 225 1.0 1.0 0.00 0.00 0.00 50 1011.1
20260504013916 53 245 0.0 0.0 0.00 0.00 0.00 49 1011.1
20260504013415 52 246 1.0 1.0 0.00 0.00 0.00 49 1011.1
20260504012911 52 66 1.0 2.0 0.00 0.00 0.00 52 1011.1
20260504012409 52 235 0.0 1.0 0.00 0.00 0.00 50 1011.1
20260504011906 53 232 1.0 1.0 0.00 0.00 0.00 50 1010.7
20260504011403 53 227 1.0 1.0 0.00 0.00 0.00 46 1011.1
20260504010858 53 245 0.0 0.0 0.00 0.00 0.00 49 1010.7
20260504010355 53 246 0.0 0.0 0.00 0.00 0.00 46 1010.7
20260504005851 54 261 0.0 0.0 0.00 0.00 0.00 45 1010.7
20260504005348 54 251 1.0 1.0 0.00 0.00 0.00 45 1010.7
20260504004845 54 246 0.0 0.0 0.00 0.00 0.00 45 1010.7
20260504004343 55 273 1.0 2.0 0.00 0.00 0.00 45 1010.7
20260504003839 55 245 3.0 3.0 0.00 0.00 0.00 44 1010.7
20260504003336 55 254 2.0 2.0 0.00 0.00 0.00 44 1010.7
20260504002833 55 234 3.0 3.0 0.00 0.00 0.00 44 1010.7
20260504002330 55 287 0.0 1.0 0.00 0.00 0.00 44 1010.7
20260504001827 55 308 1.0 2.0 0.00 0.00 0.00 44 1011.1
20260504001324 55 264 1.0 2.0 0.00 0.00 0.00 43 1010.7
20260504000821 55 252 1.0 2.0 0.00 0.00 0.00 42 1010.7
20260504000318 55 257 2.0 3.0 0.00 0.00 0.00 43 1010.7
20260503235816 55 252 3.0 3.0 0.00 0.00 0.00 41 1010.7
20260503235313 55 251 1.0 1.0 0.00 0.00 0.00 42 1010.7
20260503234811 56 264 2.0 2.0 0.00 0.00 0.00 41 1010.7
20260503234308 56 254 1.0 1.0 0.00 0.00 0.00 43 1010.7
20260503233806 56 323 2.0 2.0 0.00 0.00 0.00 42 1010.7
20260503233301 56 273 1.0 2.0 0.00 0.00 0.00 41 1010.4
20260503232759 56 258 1.0 2.0 0.00 0.00 0.00 40 1010.7
20260503232256 56 332 2.0 2.0 0.00 0.00 0.00 40 1010.4
20260503231754 57 245 1.0 1.0 0.00 0.00 0.00 42 1010.4
20260503231251 57 274 2.0 2.0 0.00 0.00 0.00 41 1010.1
20260503230746 57 268 0.0 1.0 0.00 0.00 0.00 44 1010.4
20260503230244 57 253 1.0 1.0 0.00 0.00 0.00 43 1010.4
20260503225741 57 249 1.0 2.0 0.00 0.00 0.00 42 1010.1
20260503225241 57 265 1.0 1.0 0.00 0.00 0.00 42 1010.1
20260503224738 57 277 2.0 2.0 0.00 0.00 0.00 40 1010.1
20260503224236 58 277 2.0 2.0 0.00 0.00 0.00 40 1010.1
20260503223734 58 256 1.0 1.0 0.00 0.00 0.00 39 1009.7
20260503223231 59 214 1.0 1.0 0.00 0.00 0.00 39 1010.1
20260503222727 59 335 2.0 3.0 0.00 0.00 0.00 39 1010.1
20260503222225 59 274 3.0 3.0 0.00 0.00 0.00 39 1010.1
20260503221723 59 305 2.0 3.0 0.00 0.00 0.00 39 1010.1
20260503221221 58 54 1.0 1.0 0.00 0.00 0.00 40 1010.4
20260503220717 58 180 4.0 6.0 0.00 0.00 0.00 41 1010.1
20260503220214 58 352 1.0 2.0 0.00 0.00 0.00 41 1010.1
20260503215711 59 254 3.0 3.0 0.00 0.00 0.00 40 1010.1
20260503215208 59 250 4.0 6.0 0.00 0.00 0.00 39 1010.1
20260503214706 59 324 1.0 2.0 0.00 0.00 0.00 40 1010.1
20260503214201 59 243 2.0 2.0 0.00 0.00 0.00 41 1010.1
20260503213655 60 243 2.0 3.0 0.00 0.00 0.00 40 1010.1
20260503213152 59 356 2.0 3.0 0.00 0.00 0.00 42 1010.1
20260503212649 59 50 3.0 3.0 0.00 0.00 0.00 41 1010.1
20260503212146 59 266 2.0 3.0 0.00 0.00 0.00 41 1010.1
20260503211644 58 174 3.0 3.0 0.00 0.00 0.00 42 1010.1
20260503211139 59 242 3.0 3.0 0.00 0.00 0.00 41 1010.1
20260503210636 58 265 4.0 6.0 0.00 0.00 0.00 41 1010.1
20260503210132 57 232 4.0 6.0 0.00 0.00 0.00 42 1010.1
20260503205628 57 282 2.0 3.0 0.00 0.00 0.00 43 1010.1
20260503205125 57 324 3.0 5.0 0.00 0.00 0.00 44 1010.1
20260503204621 57 218 3.0 6.0 0.00 0.00 0.00 42 1010.4
20260503204119 57 306 4.0 6.0 0.00 0.00 0.00 43 1010.7
20260503203616 57 276 2.0 3.0 0.00 0.00 0.00 43 1010.4
20260503203114 57 274 2.0 3.0 0.00 0.00 0.00 43 1010.4
20260503202611 57 241 3.0 7.0 0.00 0.00 0.00 43 1010.4
20260503202109 56 244 1.0 1.0 0.00 0.00 0.00 44 1010.4
20260503201607 57 272 2.0 3.0 0.00 0.00 0.00 43 1010.4
20260503201104 57 268 3.0 5.0 0.00 0.00 0.00 43 1010.7
20260503200600 58 238 4.0 5.0 0.00 0.00 0.00 42 1010.7
20260503200056 57 255 3.0 3.0 0.00 0.00 0.00 44 1011.1
20260503195554 57 10 2.0 3.0 0.00 0.00 0.00 45 1010.7
20260503195050 58 307 2.0 2.0 0.00 0.00 0.00 42 1011.1
20260503194547 59 337 5.0 7.0 0.00 0.00 0.00 41 1010.7
20260503194047 59 269 3.0 3.0 0.00 0.00 0.00 42 1011.1
20260503193544 60 260 2.0 3.0 0.00 0.00 0.00 42 1011.1
20260503193039 58 218 4.0 6.0 0.00 0.00 0.00 44 1011.4
20260503192535 59 229 2.0 2.0 0.00 0.00 0.00 41 1011.1
20260503192031 58 290 1.0 1.0 0.00 0.00 0.00 42 1011.4
20260503191528 58 270 0.0 1.0 0.00 0.00 0.00 45 1011.1
20260503191025 58 297 3.0 3.0 0.00 0.00 0.00 43 1011.4
20260503190522 58 323 4.0 6.0 0.00 0.00 0.00 41 1011.4
20260503190019 58 153 7.0 8.0 0.00 0.00 0.00 42 1011.8
20260503185515 58 311 1.0 2.0 0.00 0.00 0.00 43 1011.8